Wind_Speed
16 16 16 15 15 15 14 15 14 14 15 15 14 14 13 13 13 12 12 10 10 10 9 8 6 6 6 6 6 7 7 9 11 11 12 12 13 13 14 15 17 18 20 22 22 23 22
19 18 18 18 16 17 18 17 14 15 15 16 16 16 15 14 13 14 14 13 11 9 9 10 8 8 8 8 7 8 9 10 11 12 14 15 15 16 17 18 19 19 21 23 23 23 23
22 21 20 19 19 18 19 18 17 16 16 18 18 18 18 17 16 15 13 12 11 10 10 10 11 10 10 9 9 9 11 12 12 13 14 15 16 18 19 20 20 20 21 21 22 24 24
24 24 22 20 20 21 21 20 20 19 19 19 19 20 20 20 19 17 17 14 11 11 11 11 11 12 11 13 12 12 12 13 14 16 17 18 19 19 20 21 21 22 23 24 25 26 26
25 26 26 26 23 24 23 22 22 22 22 22 22 22 22 21 21 21 18 19 17 14 13 14 14 13 14 15 16 16 16 17 17 17 17 18 19 21 22 23 24 24 24 25 27 28 30
28 26 25 27 27 25 26 23 21 22 24 24 23 24 24 24 23 23 22 22 21 20 18 17 16 17 17 17 18 20 21 21 21 20 21 20 21 21 22 26 26 26 27 27 29 31 32
32 30 29 29 29 28 28 28 27 27 26 25 25 24 25 26 26 26 24 24 24 23 23 22 19 19 19 20 20 21 22 24 25 24 23 23 24 25 25 26 26 28 29 30 32 32 34
36 34 33 32 32 33 31 31 33 31 29 28 27 26 27 28 29 29 28 27 26 25 24 27 26 25 22 21 24 23 23 24 25 25 25 25 25 25 26 27 30 32 32 33 35 36 38
39 38 37 36 35 36 36 34 34 35 34 33 31 31 30 30 30 31 31 30 28 27 24 26 27 25 24 25 23 25 25 24 25 26 26 27 27 28 29 30 32 33 34 35 37 40 42
42 41 40 38 36 36 38 37 37 36 36 35 36 36 32 30 32 31 29 28 30 29 26 25 25 26 25 23 22 22 23 25 26 27 29 29 29 31 32 33 34 35 36 38 40 43 46
44 46 42 42 42 40 41 39 38 36 36 37 38 35 32 34 31 30 31 30 32 30 29 27 24 23 23 22 23 23 24 25 27 28 30 30 31 33 35 36 39 39 39 40 42 45 49
42 42 42 42 40 41 41 39 38 37 34 33 32 33 33 31 31 29 29 29 27 27 29 29 27 24 24 23 24 25 26 28 30 30 32 33 35 38 41 42 43 43 43 44 48 49 55
34 37 42 42 41 41 41 38 35 36 33 33 31 30 30 30 28 28 30 28 25 25 28 29 26 24 22 24 24 25 25 27 31 33 35 39 40 41 42 44 46 46 47 51 55 55 58
45 41 39 41 44 41 38 38 37 33 33 31 33 32 32 33 34 32 34 29 27 30 32 33 31 30 27 29 30 32 32 32 32 35 38 39 40 40 41 43 45 46 45 45 51 54 57
42 42 44 46 50 46 40 40 37 35 35 34 34 30 29 29 27 25 25 27 29 31 31 31 31 30 28 31 34 35 36 37 37 38 40 44 44 43 40 41 42 44 45 45 48 50 55
44 41 42 43 37 35 35 34 35 35 32 29 29 28 27 27 25 25 26 25 26 29 30 28 28 28 30 32 34 36 36 35 36 37 39 41 46 44 42 42 40 42 45 44 46 49 52
39 45 37 37 32 30 27 32 30 33 23 24 27 27 26 25 23 23 23 24 24 26 28 29 30 35 35 34 33 35 34 35 34 37 39 41 44 45 42 41 42 42 43 45 48 51 52
44 38 35 34 44 40 38 25 18 18 21 26 27 26 24 22 25 25 26 26 26 29 31 31 32 34 36 35 35 36 37 38 40 39 40 41 45 45 47 48 48 49 50 50 54 57 59
17 20 18 18 19 22 23 22 20 23 26 28 28 29 30 26 28 26 25 25 25 25 29 31 34 36 38 39 41 41 40 42 43 45 48 49 52 53 54 53 54 55 57 59 60 60 60
18 18 19 21 23 25 25 22 23 25 29 31 30 28 23 24 26 27 26 27 28 29 30 32 36 38 40 42 43 46 46 46 48 49 52 54 56 54 55 55 57 58 58 58 59 61 54
21 21 23 20 21 22 25 25 25 26 27 27 30 27 24 24 25 25 26 27 30 33 35 36 37 40 43 45 45 46 48 49 50 52 52 56 58 58 56 56 56 56 58 60 62 58 61
25 25 24 24 23 23 23 23 22 25 26 26 28 28 27 27 28 29 30 31 32 34 36 37 38 40 42 43 45 47 49 50 51 53 55 57 59 57 56 52 52 56 55 54 55 56 59
28 30 27 26 25 25 23 23 24 24 24 25 26 27 29 30 30 32 31 32 34 35 36 36 38 40 40 42 44 44 44 46 49 51 52 52 50 51 56 54 55 57 52 54 55 55 56
30 28 28 28 29 28 26 25 24 24 24 26 27 29 31 32 32 31 33 34 35 36 38 38 40 42 42 42 44 46 47 47 48 48 47 47 48 52 53 51 54 55 54 52 51 51 54
30 30 31 30 31 28 27 26 26 25 25 26 28 30 31 30 31 32 34 34 36 38 38 39 42 43 44 45 48 49 48 48 47 48 50 50 51 56 59 61 61 55 54 54 54 54 55
32 31 30 28 27 27 27 27 27 26 26 27 27 29 31 32 29 32 33 36 37 41 42 41 42 44 46 47 50 50 50 51 54 55 53 52 53 54 55 58 63 63 60 61 62 57 55
34 32 30 28 26 26 27 28 28 27 27 27 28 29 30 33 31 33 34 36 38 40 39 40 42 42 47 49 50 52 52 53 54 54 54 56 55 57 59 61 57 54 57 59 62 60 61
34 31 30 28 28 28 27 28 29 28 28 29 29 29 32 34 34 34 35 36 37 37 39 39 42 45 47 49 51 52 54 54 56 56 57 57 59 60 62 63 62 61 61 60 60 58 58
34 33 31 32 31 30 29 29 30 30 30 32 31 33 36 35 36 36 38 37 37 38 39 43 45 47 49 50 52 55 57 58 58 59 59 61 62 62 62 61 59 59 59 60 60 59 59
Wind_Direction
249 247 254 255 260 271 287 297 301 308 315 318 319 318 316 319 325 333 332 330 329 323 318 320 310 297 293 293 284 278 271 261 261 259 257 250 250 253 250 251 249 247 247 246 245 246 245
249 252 256 255 256 258 272 284 288 296 300 307 308 310 313 312 315 324 330 329 330 330 315 314 307 294 286 286 282 276 267 268 268 267 265 265 260 256 253 248 249 250 250 250 252 252 251
248 252 255 254 256 256 262 270 276 282 287 294 299 304 307 308 307 308 317 325 320 332 334 310 310 294 287 279 278 274 270 271 268 265 269 266 263 259 256 257 259 257 256 255 255 257 256
249 251 250 255 262 267 268 268 273 279 287 290 295 297 303 305 305 300 298 307 312 312 314 314 302 297 285 278 272 269 268 268 269 269 265 263 264 264 263 261 261 260 258 259 259 259 258
252 254 252 251 260 268 272 274 275 279 285 292 297 301 301 303 300 300 298 292 298 302 306 304 299 287 284 276 267 265 263 268 268 268 268 267 264 264 263 263 262 262 262 261 260 261 261
251 255 251 252 255 267 268 272 275 283 285 290 295 300 303 302 299 299 299 298 294 291 293 297 302 290 281 272 270 267 264 263 265 269 270 269 271 265 260 259 260 263 264 264 262 262 262
250 252 251 249 252 259 265 262 268 275 280 285 290 297 299 301 300 300 299 297 296 290 288 290 291 295 283 270 273 272 272 267 264 266 271 270 270 270 264 263 263 263 263 262 263 262 262
252 253 255 254 256 258 266 264 262 268 275 282 290 295 301 300 300 298 297 295 295 293 285 287 291 292 284 280 270 272 271 268 265 264 266 267 271 268 262 264 270 269 266 263 261 262 262
253 255 257 257 257 259 263 269 266 267 274 277 283 291 296 297 297 295 297 294 296 295 292 288 288 287 284 281 275 267 268 268 266 262 261 261 267 264 261 269 272 271 269 267 265 262 262
252 254 254 255 257 261 260 266 268 267 273 277 282 286 292 294 294 294 294 293 298 299 288 287 287 283 281 278 272 270 267 266 265 265 265 264 264 258 260 268 273 272 272 270 268 267 267
255 254 253 258 255 260 258 261 265 272 275 278 281 285 288 293 291 291 293 294 299 295 287 286 288 281 276 276 273 270 271 269 268 267 267 266 262 259 264 270 271 272 271 272 271 269 268
252 249 249 251 251 254 257 261 262 266 273 274 277 282 284 288 291 292 292 298 297 292 287 288 285 277 276 275 275 273 272 270 271 270 269 269 266 268 270 273 275 273 271 271 269 268 267
240 250 251 251 251 251 255 254 259 265 267 272 273 279 282 285 287 287 289 298 290 291 290 289 287 281 271 272 273 273 275 277 277 275 272 271 271 272 273 274 273 273 274 274 272 269 269
243 240 246 249 243 240 253 255 261 258 264 265 273 277 281 279 283 285 290 284 283 287 286 284 284 279 276 274 276 278 280 282 282 280 279 276 274 273 273 274 276 276 279 280 280 278 276
246 241 240 244 241 243 250 253 251 256 261 268 273 277 280 280 288 290 285 282 283 282 283 282 278 277 279 279 278 278 277 279 279 277 276 277 276 275 275 276 278 279 280 281 283 281 278
240 241 238 237 239 243 243 250 250 255 258 264 267 275 279 279 282 284 286 285 282 284 286 284 279 280 286 286 284 281 280 282 278 276 274 276 277 278 281 281 282 281 281 285 288 288 286
226 229 234 230 212 224 222 238 253 254 260 267 271 273 272 277 278 284 289 285 282 282 284 279 280 287 291 292 290 286 285 282 281 279 278 278 277 279 282 283 283 282 283 286 287 288 292
230 232 230 237 230 221 223 253 266 267 264 264 269 273 274 277 281 285 286 286 285 285 285 285 283 287 291 293 292 294 293 285 282 279 277 279 278 281 283 286 288 287 286 285 284 288 287
225 233 232 244 249 241 247 264 259 258 258 266 276 279 278 276 281 285 284 285 283 284 286 288 289 290 290 291 291 291 290 287 283 279 279 280 281 284 284 284 284 283 282 281 282 282 284
259 227 233 235 235 243 255 254 254 258 264 267 270 276 284 281 281 285 286 288 288 288 288 289 290 290 289 289 290 290 290 288 287 286 285 283 282 286 289 290 288 287 285 282 282 281 285
242 247 241 241 241 244 253 257 255 260 263 267 269 278 279 279 281 285 288 290 287 288 290 291 291 291 292 292 292 291 291 292 290 289 288 287 287 288 288 288 285 284 283 281 280 283 280
228 234 237 239 243 247 250 253 258 262 264 269 275 276 274 278 279 280 281 286 285 288 290 293 296 298 299 298 296 295 294 292 291 291 290 288 289 289 286 287 288 286 288 293 289 284 283
235 237 240 244 246 247 250 257 262 266 271 274 274 274 276 276 277 277 281 282 285 290 295 298 298 298 298 299 299 299 297 296 294 293 293 292 294 294 290 289 288 285 287 287 288 287 285
240 245 250 256 257 258 260 260 261 264 268 269 272 274 276 279 281 283 284 288 293 293 293 297 299 299 299 298 298 298 297 296 296 294 292 291 294 293 291 289 287 290 290 290 290 289 287
249 253 256 260 261 261 262 266 266 267 269 272 272 272 275 279 281 284 287 292 293 295 298 300 301 301 301 302 302 299 298 297 295 296 295 291 291 293 291 287 283 286 291 296 295 293 293
250 255 260 262 264 265 267 268 272 271 272 274 276 278 279 281 283 288 292 294 297 299 301 303 302 302 304 305 306 306 304 302 300 300 300 298 296 297 300 301 291 286 295 294 292 294 293
251 255 260 263 266 270 274 273 271 271 271 273 274 279 281 283 286 288 291 294 298 299 300 300 300 303 306 307 308 306 304 303 301 300 298 299 299 297 298 298 297 296 293 293 291 290 292
254 259 262 264 267 269 270 271 272 272 273 273 274 278 279 281 285 286 287 292 294 294 297 300 302 307 308 309 310 308 305 303 301 300 301 300 298 297 297 297 296 296 294 292 290 289 288
254 259 261 264 264 264 266 271 269 271 272 273 276 277 279 283 282 283 286 290 292 293 295 300 304 306 307 311 313 312 308 306 304 303 302 300 298 297 297 296 295 292 290 291 292 291 291
Height
5816 5816 5817 5817 5817 5818 5817 5817 5815 5815 5814 5813 5812 5811 5810 5809 5808 5806 5805 5804 5803 5802 5801 5800 5799 5798 5797 5797 5797 5796 5797 5796 5796 5797 5797 5798 5798 5798 5799 5800 5800 5800 5801 5801 5801 5802 5803
5812 5813 5813 5813 5813 5813 5814 5814 5813 5812 5811 5810 5810 5809 5808 5807 5806 5805 5803 5803 5801 5800 5799 5798 5797 5797 5796 5796 5795 5794 5794 5794 5795 5795 5795 5796 5796 5795 5795 5795 5796 5797 5798 5798 5798 5798 5798
5808 5809 5809 5810 5810 5809 5810 5810 5809 5809 5809 5808 5807 5807 5806 5804 5803 5802 5801 5800 5800 5799 5797 5796 5796 5795 5794 5794 5792 5792 5792 5792 5792 5792 5792 5793 5793 5793 5792 5791 5792 5793 5793 5794 5794 5794 5794
5803 5804 5805 5806 5807 5807 5806 5806 5806 5806 5806 5805 5804 5803 5803 5802 5801 5800 5799 5798 5797 5796 5795 5794 5793 5792 5791 5791 5790 5789 5789 5788 5788 5788 5788 5788 5788 5788 5789 5789 5788 5788 5788 5788 5789 5788 5788
5797 5799 5800 5801 5802 5802 5803 5803 5803 5803 5802 5801 5801 5800 5799 5798 5797 5796 5795 5795 5794 5793 5792 5790 5790 5789 5788 5787 5786 5785 5785 5785 5784 5784 5784 5783 5783 5783 5783 5783 5783 5783 5783 5783 5783 5782 5782
5791 5793 5794 5795 5797 5797 5798 5798 5799 5798 5798 5797 5796 5796 5795 5794 5793 5792 5791 5791 5790 5789 5788 5787 5785 5786 5784 5783 5782 5781 5780 5780 5780 5779 5779 5779 5777 5777 5776 5776 5776 5777 5777 5777 5776 5776 5775
5785 5787 5788 5789 5790 5791 5792 5793 5793 5793 5793 5793 5792 5791 5790 5789 5788 5788 5787 5786 5786 5785 5783 5783 5781 5779 5778 5778 5778 5777 5776 5775 5774 5774 5774 5774 5773 5772 5771 5770 5770 5770 5769 5769 5767 5767 5767
5778 5780 5781 5783 5784 5785 5786 5787 5787 5788 5788 5788 5787 5786 5785 5784 5783 5783 5782 5780 5779 5779 5779 5776 5775 5773 5772 5771 5772 5771 5771 5770 5769 5768 5768 5768 5767 5767 5766 5765 5764 5763 5763 5762 5760 5758 5757
5770 5772 5774 5776 5777 5778 5779 5780 5781 5782 5782 5782 5781 5780 5779 5778 5777 5776 5776 5775 5773 5772 5772 5771 5769 5767 5766 5765 5764 5763 5764 5763 5762 5761 5760 5759 5760 5758 5758 5758 5757 5756 5755 5754 5753 5750 5747
5761 5763 5765 5767 5769 5771 5772 5773 5774 5775 5775 5775 5775 5774 5773 5772 5771 5769 5768 5767 5767 5766 5766 5764 5762 5760 5759 5758 5758 5757 5756 5756 5755 5755 5754 5754 5752 5751 5750 5749 5748 5747 5746 5744 5743 5740 5739
5751 5754 5756 5758 5760 5762 5763 5764 5766 5767 5768 5768 5767 5767 5765 5764 5763 5761 5761 5759 5759 5758 5757 5758 5756 5754 5753 5754 5753 5751 5751 5750 5749 5748 5748 5747 5746 5744 5742 5741 5739 5738 5736 5734 5731 5728 5725
5741 5744 5746 5748 5751 5753 5754 5756 5757 5759 5760 5760 5759 5759 5758 5757 5755 5754 5753 5751 5751 5752 5749 5749 5748 5748 5747 5746 5745 5744 5743 5743 5742 5741 5739 5738 5737 5736 5735 5733 5731 5729 5727 5723 5719 5717 5711
5731 5735 5736 5740 5742 5743 5744 5748 5750 5751 5751 5751 5751 5750 5750 5749 5749 5747 5746 5745 5745 5743 5742 5741 5741 5741 5740 5739 5738 5736 5735 5734 5733 5732 5731 5728 5727 5726 5724 5722 5720 5718 5716 5712 5707 5705 5702
5722 5725 5727 5729 5732 5734 5737 5740 5741 5741 5742 5742 5742 5742 5741 5740 5740 5741 5740 5738 5736 5735 5734 5734 5733 5732 5733 5731 5730 5729 5728 5726 5725 5723 5719 5717 5717 5716 5714 5712 5708 5706 5705 5701 5693 5692 5690
5711 5715 5716 5720 5722 5725 5727 5730 5731 5731 5733 5734 5733 5733 5733 5732 5731 5732 5733 5731 5728 5726 5726 5725 5724 5723 5724 5722 5720 5719 5717 5717 5715 5712 5710 5705 5704 5703 5703 5701 5698 5696 5693 5688 5682 5679 5674
5699 5704 5706 5709 5713 5715 5718 5720 5721 5723 5724 5725 5725 5724 5725 5724 5723 5725 5725 5723 5720 5719 5718 5717 5716 5716 5715 5714 5711 5708 5707 5707 5704 5702 5699 5696 5691 5692 5692 5690 5688 5683 5680 5677 5671 5665 5661
5687 5692 5696 5701 5704 5707 5708 5711 5713 5715 5716 5716 5716 5716 5717 5715 5715 5716 5717 5715 5714 5711 5711 5711 5709 5706 5705 5703 5702 5699 5698 5696 5694 5691 5688 5685 5683 5681 5679 5678 5675 5673 5669 5664 5658 5654 5650
5679 5683 5687 5690 5694 5695 5698 5701 5704 5707 5708 5708 5708 5709 5709 5709 5709 5708 5708 5707 5706 5705 5703 5702 5701 5699 5696 5693 5692 5690 5689 5686 5683 5680 5678 5675 5670 5669 5667 5665 5663 5661 5657 5652 5644 5642 5636
5670 5673 5676 5680 5684 5687 5690 5693 5696 5699 5700 5701 5700 5700 5700 5702 5701 5700 5699 5698 5698 5697 5694 5693 5691 5690 5687 5685 5681 5680 5678 5675 5673 5669 5664 5663 5658 5656 5654 5652 5648 5644 5641 5635 5629 5625 5621
5664 5667 5671 5676 5680 5684 5686 5687 5689 5692 5693 5693 5693 5693 5693 5692 5692 5692 5691 5691 5689 5688 5687 5685 5683 5680 5677 5675 5672 5669 5666 5663 5660 5657 5653 5647 5646 5644 5641 5636 5630 5626 5622 5616 5611 5605 5607
5657 5662 5666 5669 5672 5675 5679 5680 5682 5683 5684 5685 5685 5686 5686 5684 5683 5683 5682 5682 5680 5677 5677 5675 5674 5670 5668 5664 5662 5658 5656 5652 5649 5643 5638 5633 5630 5627 5624 5619 5615 5612 5606 5599 5594 5594 5584
5653 5658 5661 5664 5665 5668 5671 5673 5674 5675 5676 5677 5677 5677 5676 5676 5674 5673 5672 5671 5669 5667 5665 5664 5662 5659 5656 5653 5650 5647 5643 5638 5635 5631 5624 5618 5613 5610 5608 5604 5598 5594 5590 5586 5580 5577 5570
5646 5651 5654 5657 5659 5661 5663 5665 5665 5667 5668 5668 5669 5668 5667 5667 5667 5666 5665 5662 5660 5659 5658 5655 5652 5649 5645 5642 5639 5635 5630 5626 5621 5616 5610 5605 5600 5594 5591 5587 5583 5581 5580 5572 5567 5561 5554
5640 5644 5647 5649 5651 5653 5654 5655 5657 5659 5660 5661 5661 5661 5660 5660 5659 5658 5656 5655 5653 5651 5648 5645 5643 5639 5636 5631 5627 5623 5618 5613 5608 5603 5599 5593 5588 5581 5576 5571 5566 5563 5559 5555 5551 5545 5538
5633 5637 5640 5642 5644 5646 5647 5649 5650 5650 5651 5652 5652 5653 5653 5652 5652 5650 5649 5648 5645 5642 5640 5636 5631 5628 5623 5619 5613 5609 5606 5600 5597 5592 5587 5582 5575 5567 5560 5555 5553 5551 5545 5539 5532 5529 5520
5625 5629 5632 5635 5636 5638 5639 5641 5641 5642 5643 5644 5644 5644 5645 5644 5644 5642 5641 5639 5636 5632 5629 5625 5621 5616 5611 5606 5600 5595 5590 5585 5580 5576 5571 5566 5560 5553 5546 5538 5533 5531 5529 5522 5517 5514 5505
5617 5621 5624 5626 5627 5629 5630 5632 5633 5634 5635 5636 5636 5635 5636 5635 5634 5633 5631 5628 5626 5623 5619 5615 5610 5606 5600 5594 5588 5583 5578 5572 5565 5561 5557 5550 5544 5538 5530 5521 5521 5518 5511 5504 5500 5496 5487
5609 5611 5615 5617 5619 5620 5623 5624 5625 5625 5626 5627 5626 5626 5626 5625 5624 5623 5621 5618 5616 5611 5608 5604 5599 5595 5588 5583 5576 5570 5564 5558 5552 5547 5541 5536 5528 5522 5515 5507 5503 5499 5493 5488 5482 5476 5470
5600 5604 5607 5610 5612 5613 5614 5615 5616 5617 5617 5617 5617 5616 5615 5615 5615 5612 5609 5607 5604 5599 5596 5590 5586 5581 5575 5569 5563 5555 5549 5543 5538 5531 5525 5518 5513 5507 5502 5493 5485 5479 5473 5467 5462 5456 5451